Powrót do katalogu

THORAD AGENA D DEB

AktywnyUNKNOWN
NORAD 4741·DEBRIS·🇺🇸 United States

Wystrzelony Apr 8, 1970 z Vandenberg Space Force Base

Loading…

Następne Przeloty (najbliższe 24 godziny)

TLE

ŚwieżeSource: Space-Track

Epoka: Sep 14, 2026, 11:02 UTC

1 04741U 70025CQ  26257.46033186 -.00000177  00000-0 -81802-3 0  9992
2 04741 100.2908 330.7813 0786552  84.7496 299.3876 11.94708726459865

Śledź THORAD AGENA D DEB w czasie rzeczywistym z AllMySat

Download on the App Store